Year,Month,Day,Hour,Minute,Value (Times are PST for temperature in C)
2016,05,05,00,00,10.00
2016,05,05,00,01,10.00
2016,05,05,00,02,9.90
2016,05,05,00,03,9.90
2016,05,05,00,04,9.90
2016,05,05,00,05,9.90
2016,05,05,00,06,9.90
2016,05,05,00,07,9.80
2016,05,05,00,08,9.80
2016,05,05,00,09,9.80
2016,05,05,00,10,9.80
2016,05,05,00,11,9.80
2016,05,05,00,12,9.80
2016,05,05,00,13,9.70
2016,05,05,00,14,9.70
2016,05,05,00,15,9.60
2016,05,05,00,16,9.60
2016,05,05,00,17,9.50
2016,05,05,00,18,9.50
2016,05,05,00,19,9.40
2016,05,05,00,20,9.40
2016,05,05,00,21,9.30
2016,05,05,00,22,9.30
2016,05,05,00,23,9.30
2016,05,05,00,24,9.20
2016,05,05,00,25,9.10
2016,05,05,00,26,9.00
2016,05,05,00,27,8.90
2016,05,05,00,28,8.90
2016,05,05,00,29,8.80
2016,05,05,00,30,8.80
2016,05,05,00,31,8.80
2016,05,05,00,32,8.70
2016,05,05,00,33,8.70
2016,05,05,00,34,8.70
2016,05,05,00,35,8.70
2016,05,05,00,36,8.60
2016,05,05,00,37,8.60
2016,05,05,00,38,8.60
2016,05,05,00,39,8.60
2016,05,05,00,40,8.60
2016,05,05,00,41,8.50
2016,05,05,00,42,8.50
2016,05,05,00,43,8.40
2016,05,05,00,44,8.40
2016,05,05,00,45,8.40
2016,05,05,00,46,8.30
2016,05,05,00,47,8.30
2016,05,05,00,48,8.20
2016,05,05,00,49,8.20
2016,05,05,00,50,8.20
2016,05,05,00,51,8.20
2016,05,05,00,52,8.20
2016,05,05,00,53,8.20
2016,05,05,00,54,8.10
2016,05,05,00,55,8.10
2016,05,05,00,56,8.00
2016,05,05,00,57,8.00
2016,05,05,00,58,7.90
2016,05,05,00,59,7.90
2016,05,05,01,00,7.90
2016,05,05,01,01,7.90
2016,05,05,01,02,7.90
2016,05,05,01,03,7.90
2016,05,05,01,04,7.90
2016,05,05,01,05,7.90
2016,05,05,01,06,7.80
2016,05,05,01,07,7.80
2016,05,05,01,08,7.80
2016,05,05,01,09,7.80
2016,05,05,01,10,7.80
2016,05,05,01,11,7.80
2016,05,05,01,12,7.80
2016,05,05,01,13,7.70
2016,05,05,01,14,7.70
2016,05,05,01,15,7.60
2016,05,05,01,16,7.60
2016,05,05,01,17,7.60
2016,05,05,01,18,7.50
2016,05,05,01,19,7.50
2016,05,05,01,20,7.40
2016,05,05,01,21,7.40
2016,05,05,01,22,7.40
2016,05,05,01,23,7.40
2016,05,05,01,24,7.40
2016,05,05,01,25,7.40
2016,05,05,01,26,7.40
2016,05,05,01,27,7.30
2016,05,05,01,28,7.30
2016,05,05,01,29,7.30
2016,05,05,01,30,7.30
2016,05,05,01,31,7.30
2016,05,05,01,32,7.30
2016,05,05,01,33,7.30
2016,05,05,01,34,7.20
2016,05,05,01,35,7.20
2016,05,05,01,36,7.20
2016,05,05,01,37,7.20
2016,05,05,01,38,7.20
2016,05,05,01,39,7.20
2016,05,05,01,40,7.20
2016,05,05,01,41,7.20
2016,05,05,01,42,7.10
2016,05,05,01,43,7.10
2016,05,05,01,44,7.10
2016,05,05,01,45,7.10
2016,05,05,01,46,7.00
2016,05,05,01,47,7.00
2016,05,05,01,48,7.00
2016,05,05,01,49,7.10
2016,05,05,01,50,7.10
2016,05,05,01,51,7.10
2016,05,05,01,52,7.10
2016,05,05,01,53,7.10
2016,05,05,01,54,7.10
2016,05,05,01,55,7.10
2016,05,05,01,56,7.10
2016,05,05,01,57,7.00
2016,05,05,01,58,7.00
2016,05,05,01,59,7.00
2016,05,05,02,00,7.00
2016,05,05,02,01,6.90
2016,05,05,02,02,6.90
2016,05,05,02,03,6.90
2016,05,05,02,04,6.90
2016,05,05,02,05,6.80
2016,05,05,02,06,6.80
2016,05,05,02,07,6.80
2016,05,05,02,08,6.90
2016,05,05,02,09,6.90
2016,05,05,02,10,6.90
2016,05,05,02,11,6.90
2016,05,05,02,12,6.90
2016,05,05,02,13,7.00
2016,05,05,02,14,7.00
2016,05,05,02,15,7.00
2016,05,05,02,16,7.00
2016,05,05,02,17,6.90
2016,05,05,02,18,6.90
2016,05,05,02,19,6.90
2016,05,05,02,20,6.90
2016,05,05,02,21,6.90
2016,05,05,02,22,6.90
2016,05,05,02,23,6.90
2016,05,05,02,24,6.90
2016,05,05,02,25,6.90
2016,05,05,02,26,6.90
2016,05,05,02,27,6.90
2016,05,05,02,28,6.90
2016,05,05,02,29,6.90
2016,05,05,02,30,6.90
2016,05,05,02,31,6.90
2016,05,05,02,32,6.90
2016,05,05,02,33,6.90
2016,05,05,02,34,6.90
2016,05,05,02,35,6.90
2016,05,05,02,36,6.80
2016,05,05,02,37,6.80
2016,05,05,02,38,6.80
2016,05,05,02,39,6.80
2016,05,05,02,40,6.70
2016,05,05,02,41,6.70
2016,05,05,02,42,6.70
2016,05,05,02,43,6.70
2016,05,05,02,44,6.70
2016,05,05,02,45,6.70
2016,05,05,02,46,6.70
2016,05,05,02,47,6.70
2016,05,05,02,48,6.70
2016,05,05,02,49,6.70
2016,05,05,02,50,6.70
2016,05,05,02,51,6.70
2016,05,05,02,52,6.70
2016,05,05,02,53,6.70
2016,05,05,02,54,6.70
2016,05,05,02,55,6.70
2016,05,05,02,56,6.60
2016,05,05,02,57,6.60
2016,05,05,02,58,6.60
2016,05,05,02,59,6.70
2016,05,05,03,00,6.70
2016,05,05,03,01,6.70
2016,05,05,03,02,6.60
2016,05,05,03,03,6.60
2016,05,05,03,04,6.60
2016,05,05,03,05,6.60
2016,05,05,03,06,6.60
2016,05,05,03,07,6.60
2016,05,05,03,08,6.60
2016,05,05,03,09,6.60
2016,05,05,03,10,6.50
2016,05,05,03,11,6.50
2016,05,05,03,12,6.40
2016,05,05,03,13,6.40
2016,05,05,03,14,6.40
2016,05,05,03,15,6.40
2016,05,05,03,16,6.40
2016,05,05,03,17,6.40
2016,05,05,03,18,6.50
2016,05,05,03,19,6.50
2016,05,05,03,20,6.50
2016,05,05,03,21,6.40
2016,05,05,03,22,6.40
2016,05,05,03,23,6.40
2016,05,05,03,24,6.40
2016,05,05,03,25,6.40
2016,05,05,03,26,6.40
2016,05,05,03,27,6.40
2016,05,05,03,28,6.40
2016,05,05,03,29,6.30
2016,05,05,03,30,6.30
2016,05,05,03,31,6.30
2016,05,05,03,32,6.30
2016,05,05,03,33,6.30
2016,05,05,03,34,6.30
2016,05,05,03,35,6.30
2016,05,05,03,36,6.30
2016,05,05,03,37,6.30
2016,05,05,03,38,6.30
2016,05,05,03,39,6.30
2016,05,05,03,40,6.40
2016,05,05,03,41,6.40
2016,05,05,03,42,6.40
2016,05,05,03,43,6.40
2016,05,05,03,44,6.40
2016,05,05,03,45,6.40
2016,05,05,03,46,6.40
2016,05,05,03,47,6.40
2016,05,05,03,48,6.40
2016,05,05,03,49,6.40
2016,05,05,03,50,6.40
2016,05,05,03,51,6.40
2016,05,05,03,52,6.40
2016,05,05,03,53,6.40
2016,05,05,03,54,6.40
2016,05,05,03,55,6.40
2016,05,05,03,56,6.40
2016,05,05,03,57,6.50
2016,05,05,03,58,6.50
2016,05,05,03,59,6.50
2016,05,05,04,00,6.50
2016,05,05,04,01,6.50
2016,05,05,04,02,6.50
2016,05,05,04,03,6.50
2016,05,05,04,04,6.50
2016,05,05,04,05,6.50
2016,05,05,04,06,6.40
2016,05,05,04,07,6.40
2016,05,05,04,08,6.40
2016,05,05,04,09,6.40
2016,05,05,04,10,6.40
2016,05,05,04,11,6.40
2016,05,05,04,12,6.40
2016,05,05,04,13,6.40
2016,05,05,04,14,6.40
2016,05,05,04,15,6.40
2016,05,05,04,16,6.40
2016,05,05,04,17,6.40
2016,05,05,04,18,6.40
2016,05,05,04,19,6.40
2016,05,05,04,20,6.40
2016,05,05,04,21,6.40
2016,05,05,04,22,6.40
2016,05,05,04,23,6.30
2016,05,05,04,24,6.30
2016,05,05,04,25,6.30
2016,05,05,04,26,6.30
2016,05,05,04,27,6.30
2016,05,05,04,28,6.30
2016,05,05,04,29,6.30
2016,05,05,04,30,6.40
2016,05,05,04,31,6.50
2016,05,05,04,32,6.50
2016,05,05,04,33,6.60
2016,05,05,04,34,6.60
2016,05,05,04,35,6.60
2016,05,05,04,36,6.60
2016,05,05,04,37,6.70
2016,05,05,04,38,6.70
2016,05,05,04,39,6.70
2016,05,05,04,40,6.70
2016,05,05,04,41,6.70
2016,05,05,04,42,6.70
2016,05,05,04,43,6.70
2016,05,05,04,44,6.80
2016,05,05,04,45,6.80
2016,05,05,04,46,6.80
2016,05,05,04,47,6.80
2016,05,05,04,48,6.80
2016,05,05,04,49,6.90
2016,05,05,04,50,6.90
2016,05,05,04,51,7.00
2016,05,05,04,52,7.10
2016,05,05,04,53,7.10
2016,05,05,04,54,7.20
2016,05,05,04,55,7.20
2016,05,05,04,56,7.20
2016,05,05,04,57,7.20
2016,05,05,04,58,7.30
2016,05,05,04,59,7.30
2016,05,05,05,00,7.40
2016,05,05,05,01,7.40
2016,05,05,05,02,7.40
2016,05,05,05,03,7.40
2016,05,05,05,04,7.50
2016,05,05,05,05,7.50
2016,05,05,05,06,7.50
2016,05,05,05,07,7.50
2016,05,05,05,08,7.60
2016,05,05,05,09,7.60
2016,05,05,05,10,7.70
2016,05,05,05,11,7.70
2016,05,05,05,12,7.70
2016,05,05,05,13,7.70
2016,05,05,05,14,7.60
2016,05,05,05,15,7.60
2016,05,05,05,16,7.50
2016,05,05,05,17,7.60
2016,05,05,05,18,7.60
2016,05,05,05,19,7.50
2016,05,05,05,20,7.50
2016,05,05,05,21,7.50
2016,05,05,05,22,7.60
2016,05,05,05,23,7.60
2016,05,05,05,24,7.70
2016,05,05,05,25,7.70
2016,05,05,05,26,7.70
2016,05,05,05,27,7.70
2016,05,05,05,28,7.80
2016,05,05,05,29,7.80
2016,05,05,05,30,7.80
2016,05,05,05,31,7.80
2016,05,05,05,32,7.80
2016,05,05,05,33,7.70
2016,05,05,05,34,7.70
2016,05,05,05,35,7.70
2016,05,05,05,36,7.70
2016,05,05,05,37,7.70
2016,05,05,05,38,7.70
2016,05,05,05,39,7.70
2016,05,05,05,40,7.70
2016,05,05,05,41,7.70
2016,05,05,05,42,7.70
2016,05,05,05,43,7.70
2016,05,05,05,44,7.70
2016,05,05,05,45,7.70
2016,05,05,05,46,7.70
2016,05,05,05,47,7.70
2016,05,05,05,48,7.70
2016,05,05,05,49,7.70
2016,05,05,05,50,7.70
2016,05,05,05,51,7.70
2016,05,05,05,52,7.70
2016,05,05,05,53,7.70
2016,05,05,05,54,7.70
2016,05,05,05,55,7.60
2016,05,05,05,56,7.60
2016,05,05,05,57,7.60
2016,05,05,05,58,7.60
2016,05,05,05,59,7.50
2016,05,05,06,00,7.50
2016,05,05,06,01,7.50
2016,05,05,06,02,7.50
2016,05,05,06,03,7.40
2016,05,05,06,04,7.40
2016,05,05,06,05,7.40
2016,05,05,06,06,7.40
2016,05,05,06,07,7.40
2016,05,05,06,08,7.40
2016,05,05,06,09,7.40
2016,05,05,06,10,7.40
2016,05,05,06,11,7.40
2016,05,05,06,12,7.40
2016,05,05,06,13,7.40
2016,05,05,06,14,7.30
2016,05,05,06,15,7.30
2016,05,05,06,16,7.30
2016,05,05,06,17,7.30
2016,05,05,06,18,7.30
2016,05,05,06,19,7.40
2016,05,05,06,20,7.40
2016,05,05,06,21,7.40
2016,05,05,06,22,7.50
2016,05,05,06,23,7.50
2016,05,05,06,24,7.50
2016,05,05,06,25,7.50
2016,05,05,06,26,7.60
2016,05,05,06,27,7.60
2016,05,05,06,28,7.60
2016,05,05,06,29,7.50
2016,05,05,06,30,7.60
2016,05,05,06,31,7.60
2016,05,05,06,32,7.60
2016,05,05,06,33,7.70
2016,05,05,06,34,7.70
2016,05,05,06,35,7.80
2016,05,05,06,36,7.80
2016,05,05,06,37,7.80
2016,05,05,06,38,7.80
2016,05,05,06,39,7.80
2016,05,05,06,40,7.80
2016,05,05,06,41,7.80
2016,05,05,06,42,7.80
2016,05,05,06,43,7.80
2016,05,05,06,44,7.80
2016,05,05,06,45,7.90
2016,05,05,06,46,7.90
2016,05,05,06,47,7.90
2016,05,05,06,48,7.90
2016,05,05,06,49,7.90
2016,05,05,06,50,7.90
2016,05,05,06,51,7.90
2016,05,05,06,52,7.90
2016,05,05,06,53,7.90
2016,05,05,06,54,7.90
2016,05,05,06,55,8.00
2016,05,05,06,56,8.00
2016,05,05,06,57,8.10
2016,05,05,06,58,8.10
2016,05,05,06,59,8.20
2016,05,05,07,00,8.20
2016,05,05,07,01,8.20
2016,05,05,07,02,8.20
2016,05,05,07,03,8.20
2016,05,05,07,04,8.30
2016,05,05,07,05,8.30
2016,05,05,07,06,8.30
2016,05,05,07,07,8.30
2016,05,05,07,08,8.40
2016,05,05,07,09,8.40
2016,05,05,07,10,8.40
2016,05,05,07,11,8.40
2016,05,05,07,12,8.50
2016,05,05,07,13,8.50
2016,05,05,07,14,8.50
2016,05,05,07,15,8.60
2016,05,05,07,16,8.60
2016,05,05,07,17,8.60
2016,05,05,07,18,8.60
2016,05,05,07,19,8.70
2016,05,05,07,20,8.70
2016,05,05,07,21,8.70
2016,05,05,07,22,8.70
2016,05,05,07,23,8.80
2016,05,05,07,24,8.80
2016,05,05,07,25,8.80
2016,05,05,07,26,8.80
2016,05,05,07,27,8.90
2016,05,05,07,28,8.90
2016,05,05,07,29,8.90
2016,05,05,07,30,8.90
2016,05,05,07,31,8.90
2016,05,05,07,32,9.00
2016,05,05,07,33,9.00
2016,05,05,07,34,9.00
2016,05,05,07,35,9.00
2016,05,05,07,36,9.10
2016,05,05,07,37,9.10
2016,05,05,07,38,9.10
2016,05,05,07,39,9.20
2016,05,05,07,40,9.20
2016,05,05,07,41,9.20
2016,05,05,07,42,9.20
2016,05,05,07,43,9.30
2016,05,05,07,44,9.30
2016,05,05,07,45,9.30
2016,05,05,07,46,9.30
2016,05,05,07,47,9.30
2016,05,05,07,48,9.30
2016,05,05,07,49,9.30
2016,05,05,07,50,9.40
2016,05,05,07,51,9.40
2016,05,05,07,52,9.40
2016,05,05,07,53,9.50
2016,05,05,07,54,9.50
2016,05,05,07,55,9.60
2016,05,05,07,56,9.60
2016,05,05,07,57,9.60
2016,05,05,07,58,9.60
2016,05,05,07,59,9.60
2016,05,05,08,00,9.60
2016,05,05,08,01,9.60
2016,05,05,08,02,9.70
2016,05,05,08,03,9.70
2016,05,05,08,04,9.70
2016,05,05,08,05,9.70
2016,05,05,08,06,9.70
2016,05,05,08,07,9.70
2016,05,05,08,08,9.70
2016,05,05,08,09,9.70
2016,05,05,08,10,9.70
2016,05,05,08,11,9.70
2016,05,05,08,12,9.70
2016,05,05,08,13,9.80
2016,05,05,08,14,9.80
2016,05,05,08,15,9.80
2016,05,05,08,16,9.90
2016,05,05,08,17,9.90
2016,05,05,08,18,9.90
2016,05,05,08,19,9.90
2016,05,05,08,20,10.00
2016,05,05,08,21,10.00
2016,05,05,08,22,10.00
2016,05,05,08,23,10.00
2016,05,05,08,24,10.10
2016,05,05,08,25,10.10
2016,05,05,08,26,10.10
2016,05,05,08,27,10.10
2016,05,05,08,28,10.10
2016,05,05,08,29,10.10
2016,05,05,08,30,10.10
2016,05,05,08,31,10.20
2016,05,05,08,32,10.20
2016,05,05,08,33,10.20
2016,05,05,08,34,10.20
2016,05,05,08,35,10.20
2016,05,05,08,36,10.20
2016,05,05,08,37,10.30
2016,05,05,08,38,10.30
2016,05,05,08,39,10.30
2016,05,05,08,40,10.30
2016,05,05,08,41,10.30
2016,05,05,08,42,10.40
2016,05,05,08,43,10.50
2016,05,05,08,44,10.50
2016,05,05,08,45,10.60
2016,05,05,08,46,10.70
2016,05,05,08,47,10.70
2016,05,05,08,48,10.80
2016,05,05,08,49,10.80
2016,05,05,08,50,10.90
2016,05,05,08,51,11.00
2016,05,05,08,52,11.00
2016,05,05,08,53,11.10
2016,05,05,08,54,11.20
2016,05,05,08,55,11.20
2016,05,05,08,56,11.20
2016,05,05,08,57,11.20
2016,05,05,08,58,11.30
2016,05,05,08,59,11.30
2016,05,05,09,00,11.40
2016,05,05,09,01,11.40
2016,05,05,09,02,11.50
2016,05,05,09,03,11.50
2016,05,05,09,04,11.60
2016,05,05,09,05,11.60
2016,05,05,09,06,11.60
2016,05,05,09,07,11.60
2016,05,05,09,08,11.70
2016,05,05,09,09,11.70
2016,05,05,09,10,11.80
2016,05,05,09,11,11.80
2016,05,05,09,12,11.80
2016,05,05,09,13,11.80
2016,05,05,09,14,11.80
2016,05,05,09,15,11.80
2016,05,05,09,16,11.80
2016,05,05,09,17,11.90
2016,05,05,09,18,11.90
2016,05,05,09,19,11.90
2016,05,05,09,20,11.90
2016,05,05,09,21,11.90
2016,05,05,09,22,12.00
2016,05,05,09,23,12.00
2016,05,05,09,24,12.00
2016,05,05,09,25,12.00
2016,05,05,09,26,11.90
2016,05,05,09,27,11.90
2016,05,05,09,28,11.80
2016,05,05,09,29,11.80
2016,05,05,09,30,11.80
2016,05,05,09,31,11.90
2016,05,05,09,32,11.90
2016,05,05,09,33,11.90
2016,05,05,09,34,11.80
2016,05,05,09,35,11.80
2016,05,05,09,36,11.80
2016,05,05,09,37,11.80
2016,05,05,09,38,11.80
2016,05,05,09,39,11.80
2016,05,05,09,40,11.80
2016,05,05,09,41,11.80
2016,05,05,09,42,11.80
2016,05,05,09,43,11.80
2016,05,05,09,44,11.80
2016,05,05,09,45,11.80
2016,05,05,09,46,11.90
2016,05,05,09,47,11.90
2016,05,05,09,48,12.00
2016,05,05,09,49,12.00
2016,05,05,09,50,12.10
2016,05,05,09,51,12.10
2016,05,05,09,52,12.10
2016,05,05,09,53,12.20
2016,05,05,09,54,12.20
2016,05,05,09,55,12.20
2016,05,05,09,56,12.20
2016,05,05,09,57,12.20
2016,05,05,09,58,12.20
2016,05,05,09,59,12.20
2016,05,05,10,00,12.20
2016,05,05,10,01,12.30
2016,05,05,10,02,12.30
2016,05,05,10,03,12.30
2016,05,05,10,04,12.30
2016,05,05,10,05,12.30
2016,05,05,10,06,12.30
2016,05,05,10,07,12.30
2016,05,05,10,08,12.30
2016,05,05,10,09,12.30
2016,05,05,10,10,12.30
2016,05,05,10,11,12.40
2016,05,05,10,12,12.40
2016,05,05,10,13,12.40
2016,05,05,10,14,12.40
2016,05,05,10,15,12.40
2016,05,05,10,16,12.40
2016,05,05,10,17,12.40
2016,05,05,10,18,12.40
2016,05,05,10,19,12.40
2016,05,05,10,20,12.50
2016,05,05,10,21,12.50
2016,05,05,10,22,12.50
2016,05,05,10,23,12.50
2016,05,05,10,24,12.60
2016,05,05,10,25,12.60
2016,05,05,10,26,12.60
2016,05,05,10,27,12.60
2016,05,05,10,28,12.60
2016,05,05,10,29,12.60
2016,05,05,10,30,12.60
2016,05,05,10,31,12.60
2016,05,05,10,32,12.60
2016,05,05,10,33,12.70
2016,05,05,10,34,12.70
2016,05,05,10,35,12.70
2016,05,05,10,36,12.80
2016,05,05,10,37,12.80
2016,05,05,10,38,12.90
2016,05,05,10,39,12.90
2016,05,05,10,40,12.90
2016,05,05,10,41,13.00
2016,05,05,10,42,13.00
2016,05,05,10,43,13.00
2016,05,05,10,44,13.00
2016,05,05,10,45,13.00
2016,05,05,10,46,13.00
2016,05,05,10,47,13.00
2016,05,05,10,48,13.00
2016,05,05,10,49,13.00
2016,05,05,10,50,13.10
2016,05,05,10,51,13.10
2016,05,05,10,52,13.10
2016,05,05,10,53,13.10
2016,05,05,10,54,13.10
2016,05,05,10,55,13.10
2016,05,05,10,56,13.10
2016,05,05,10,57,13.20
2016,05,05,10,58,13.20
2016,05,05,10,59,13.20
2016,05,05,11,00,13.20
2016,05,05,11,01,13.10
2016,05,05,11,02,13.10
2016,05,05,11,03,13.20
2016,05,05,11,04,13.30
2016,05,05,11,05,13.50
2016,05,05,11,06,13.60
2016,05,05,11,07,13.60
2016,05,05,11,08,13.70
2016,05,05,11,09,13.70
2016,05,05,11,10,13.80
2016,05,05,11,11,13.70
2016,05,05,11,12,13.70
2016,05,05,11,13,13.60
2016,05,05,11,14,13.60
2016,05,05,11,15,13.60
2016,05,05,11,16,13.60
2016,05,05,11,17,13.60
2016,05,05,11,18,13.60
2016,05,05,11,19,13.60
2016,05,05,11,20,13.60
2016,05,05,11,21,13.60
2016,05,05,11,22,13.60
2016,05,05,11,23,13.50
2016,05,05,11,24,13.50
2016,05,05,11,25,13.40
2016,05,05,11,26,13.40
2016,05,05,11,27,13.40
2016,05,05,11,28,13.50
2016,05,05,11,29,13.50
2016,05,05,11,30,13.50
2016,05,05,11,31,13.50
2016,05,05,11,32,13.50
2016,05,05,11,33,13.50
2016,05,05,11,34,13.50
2016,05,05,11,35,13.50
2016,05,05,11,36,13.60
2016,05,05,11,37,13.60
2016,05,05,11,38,13.80
2016,05,05,11,39,13.80
2016,05,05,11,40,13.90
2016,05,05,11,41,14.00
2016,05,05,11,42,14.00
2016,05,05,11,43,14.00
2016,05,05,11,44,13.90
2016,05,05,11,45,13.90
2016,05,05,11,46,14.00
2016,05,05,11,47,14.10
2016,05,05,11,48,14.10
2016,05,05,11,49,14.20
2016,05,05,11,50,14.20
2016,05,05,11,51,14.30
2016,05,05,11,52,14.40
2016,05,05,11,53,14.40
2016,05,05,11,54,14.60
2016,05,05,11,55,14.70
2016,05,05,11,56,14.80
2016,05,05,11,57,14.90
2016,05,05,11,58,15.00
2016,05,05,11,59,15.10
2016,05,05,12,00,15.20
2016,05,05,12,01,15.10
2016,05,05,12,02,15.10
2016,05,05,12,03,15.10
2016,05,05,12,04,15.10
2016,05,05,12,05,15.10
2016,05,05,12,06,15.10
2016,05,05,12,07,15.00
2016,05,05,12,08,15.00
2016,05,05,12,09,15.00
2016,05,05,12,10,15.00
2016,05,05,12,11,15.00
2016,05,05,12,12,15.00
2016,05,05,12,13,15.00
2016,05,05,12,14,15.00
2016,05,05,12,15,15.00
2016,05,05,12,16,15.00
2016,05,05,12,17,15.00
2016,05,05,12,18,15.00
2016,05,05,12,19,15.00
2016,05,05,12,20,15.00
2016,05,05,12,21,15.00
2016,05,05,12,22,15.00
2016,05,05,12,23,15.00
2016,05,05,12,24,15.00
2016,05,05,12,25,15.00
2016,05,05,12,26,15.00
2016,05,05,12,27,15.10
2016,05,05,12,28,15.20
2016,05,05,12,29,15.30
2016,05,05,12,30,15.30
2016,05,05,12,31,15.30
2016,05,05,12,32,15.30
2016,05,05,12,33,15.30
2016,05,05,12,34,15.30
2016,05,05,12,35,15.40
2016,05,05,12,36,15.40
2016,05,05,12,37,15.40
2016,05,05,12,38,15.30
2016,05,05,12,39,15.20
2016,05,05,12,40,15.20
2016,05,05,12,41,15.30
2016,05,05,12,42,15.30
2016,05,05,12,43,15.30
2016,05,05,12,44,15.40
2016,05,05,12,45,15.50
2016,05,05,12,46,15.60
2016,05,05,12,47,15.70
2016,05,05,12,48,15.70
2016,05,05,12,49,15.80
2016,05,05,12,50,15.80
2016,05,05,12,51,15.90
2016,05,05,12,52,15.90
2016,05,05,12,53,15.90
2016,05,05,12,54,15.90
2016,05,05,12,55,15.90
2016,05,05,12,56,15.90
2016,05,05,12,57,16.00
2016,05,05,12,58,16.00
2016,05,05,12,59,15.90
2016,05,05,13,00,15.90
2016,05,05,13,01,15.90
2016,05,05,13,02,15.90
2016,05,05,13,03,16.00
2016,05,05,13,04,16.00
2016,05,05,13,05,16.10
2016,05,05,13,06,16.20
2016,05,05,13,07,16.20
2016,05,05,13,08,16.30
2016,05,05,13,09,16.40
2016,05,05,13,10,16.50
2016,05,05,13,11,16.50
2016,05,05,13,12,16.60
2016,05,05,13,13,16.60
2016,05,05,13,14,16.60
2016,05,05,13,15,16.60
2016,05,05,13,16,16.60
2016,05,05,13,17,16.60
2016,05,05,13,18,16.50
2016,05,05,13,19,16.50
2016,05,05,13,20,16.40
2016,05,05,13,21,16.40
2016,05,05,13,22,16.30
2016,05,05,13,23,16.30
2016,05,05,13,24,16.30
2016,05,05,13,25,16.30
2016,05,05,13,26,16.30
2016,05,05,13,27,16.30
2016,05,05,13,28,16.40
2016,05,05,13,29,16.50
2016,05,05,13,30,16.50
2016,05,05,13,31,16.40
2016,05,05,13,32,16.40
2016,05,05,13,33,16.40
2016,05,05,13,34,16.50
2016,05,05,13,35,16.50
2016,05,05,13,36,16.60
2016,05,05,13,37,16.70
2016,05,05,13,38,16.80
2016,05,05,13,39,16.90
2016,05,05,13,40,17.10
2016,05,05,13,41,17.10
2016,05,05,13,42,17.10
2016,05,05,13,43,17.20
2016,05,05,13,44,17.30
2016,05,05,13,45,17.40
2016,05,05,13,46,17.40
2016,05,05,13,47,17.40
2016,05,05,13,48,17.30
2016,05,05,13,49,17.20
2016,05,05,13,50,17.20
2016,05,05,13,51,17.20
2016,05,05,13,52,17.20
2016,05,05,13,53,17.20
2016,05,05,13,54,17.20
2016,05,05,13,55,17.30
2016,05,05,13,56,17.30
2016,05,05,13,57,17.30
2016,05,05,13,58,17.30
2016,05,05,13,59,17.30
2016,05,05,14,00,17.20
2016,05,05,14,01,17.20
2016,05,05,14,02,17.20
2016,05,05,14,03,17.20
2016,05,05,14,04,17.20
2016,05,05,14,05,17.20
2016,05,05,14,06,17.20
2016,05,05,14,07,17.20
2016,05,05,14,08,17.20
2016,05,05,14,09,17.20
2016,05,05,14,10,17.20
2016,05,05,14,11,17.10
2016,05,05,14,12,17.00
2016,05,05,14,13,16.90
2016,05,05,14,14,16.90
2016,05,05,14,15,16.80
2016,05,05,14,16,16.90
2016,05,05,14,17,17.00
2016,05,05,14,18,17.00
2016,05,05,14,19,17.20
2016,05,05,14,20,17.30
2016,05,05,14,21,17.30
2016,05,05,14,22,17.40
2016,05,05,14,23,17.50
2016,05,05,14,24,17.60
2016,05,05,14,25,17.60
2016,05,05,14,26,17.60
2016,05,05,14,27,17.70
2016,05,05,14,28,17.70
2016,05,05,14,29,17.80
2016,05,05,14,30,17.90
2016,05,05,14,31,17.90
2016,05,05,14,32,17.90
2016,05,05,14,33,17.90
2016,05,05,14,34,17.90
2016,05,05,14,35,17.80
2016,05,05,14,36,17.80
2016,05,05,14,37,17.80
2016,05,05,14,38,17.70
2016,05,05,14,39,17.60
2016,05,05,14,40,17.60
2016,05,05,14,41,17.60
2016,05,05,14,42,17.60
2016,05,05,14,43,17.50
2016,05,05,14,44,17.40
2016,05,05,14,45,17.40
2016,05,05,14,46,17.30
2016,05,05,14,47,17.40
2016,05,05,14,48,17.40
2016,05,05,14,49,17.40
2016,05,05,14,50,17.50
2016,05,05,14,51,17.50
2016,05,05,14,52,17.60
2016,05,05,14,53,17.70
2016,05,05,14,54,17.70
2016,05,05,14,55,17.60
2016,05,05,14,56,17.60
2016,05,05,14,57,17.60
2016,05,05,14,58,17.50
2016,05,05,14,59,17.50
2016,05,05,15,00,17.40
2016,05,05,15,01,17.30
2016,05,05,15,02,17.40
2016,05,05,15,03,17.50
2016,05,05,15,04,17.60
2016,05,05,15,05,17.50
2016,05,05,15,06,17.40
2016,05,05,15,07,17.40
2016,05,05,15,08,17.40
2016,05,05,15,09,17.50
2016,05,05,15,10,17.60
2016,05,05,15,11,17.70
2016,05,05,15,12,17.70
2016,05,05,15,13,17.80
2016,05,05,15,14,17.80
2016,05,05,15,15,17.90
2016,05,05,15,16,17.90
2016,05,05,15,17,17.90
2016,05,05,15,18,17.90
2016,05,05,15,19,18.00
2016,05,05,15,20,18.00
2016,05,05,15,21,18.00
2016,05,05,15,22,17.90
2016,05,05,15,23,17.90
2016,05,05,15,24,17.90
2016,05,05,15,25,17.80
2016,05,05,15,26,17.80
2016,05,05,15,27,17.80
2016,05,05,15,28,17.80
2016,05,05,15,29,17.80
2016,05,05,15,30,18.00
2016,05,05,15,31,18.10
2016,05,05,15,32,18.20
2016,05,05,15,33,18.30
2016,05,05,15,34,18.40
2016,05,05,15,35,18.50
2016,05,05,15,36,18.50
2016,05,05,15,37,18.60
2016,05,05,15,38,18.70
2016,05,05,15,39,18.70
2016,05,05,15,40,18.80
2016,05,05,15,41,18.90
2016,05,05,15,42,19.00
2016,05,05,15,43,19.10
2016,05,05,15,44,19.20
2016,05,05,15,45,19.20
2016,05,05,15,46,19.20
2016,05,05,15,47,19.20
2016,05,05,15,48,19.20
2016,05,05,15,49,19.30
2016,05,05,15,50,19.20
2016,05,05,15,51,19.20
2016,05,05,15,52,19.20
2016,05,05,15,53,19.30
2016,05,05,15,54,19.30
2016,05,05,15,55,19.40
2016,05,05,15,56,19.40
2016,05,05,15,57,19.40
2016,05,05,15,58,19.30
2016,05,05,15,59,19.30
2016,05,05,16,00,19.20
2016,05,05,16,01,19.20
2016,05,05,16,02,19.20
2016,05,05,16,03,19.20
2016,05,05,16,04,19.20
2016,05,05,16,05,19.30
2016,05,05,16,06,19.30
2016,05,05,16,07,19.30
2016,05,05,16,08,19.30
2016,05,05,16,09,19.40
2016,05,05,16,10,19.50
2016,05,05,16,11,19.60
2016,05,05,16,12,19.60
2016,05,05,16,13,19.70
2016,05,05,16,14,19.80
2016,05,05,16,15,19.80
2016,05,05,16,16,19.90
2016,05,05,16,17,19.90
2016,05,05,16,18,19.90
2016,05,05,16,19,19.90
2016,05,05,16,20,20.00
2016,05,05,16,21,20.00
2016,05,05,16,22,20.00
2016,05,05,16,23,20.10
2016,05,05,16,24,20.10
2016,05,05,16,25,20.00
2016,05,05,16,26,20.10
2016,05,05,16,27,20.10
2016,05,05,16,28,20.10
2016,05,05,16,29,20.10
2016,05,05,16,30,20.10
2016,05,05,16,31,20.10
2016,05,05,16,32,20.20
2016,05,05,16,33,20.20
2016,05,05,16,34,20.20
2016,05,05,16,35,20.20
2016,05,05,16,36,20.10
2016,05,05,16,37,20.10
2016,05,05,16,38,20.10
2016,05,05,16,39,20.10
2016,05,05,16,40,20.10
2016,05,05,16,41,20.10
2016,05,05,16,42,20.10
2016,05,05,16,43,20.10
2016,05,05,16,44,20.10
2016,05,05,16,45,20.10
2016,05,05,16,46,20.10
2016,05,05,16,47,20.10
2016,05,05,16,48,20.10
2016,05,05,16,49,20.20
2016,05,05,16,50,20.30
2016,05,05,16,51,20.30
2016,05,05,16,52,20.40
2016,05,05,16,53,20.40
2016,05,05,16,54,20.50
2016,05,05,16,55,20.50
2016,05,05,16,56,20.50
2016,05,05,16,57,20.50
2016,05,05,16,58,20.50
2016,05,05,16,59,20.50
2016,05,05,17,00,20.60
2016,05,05,17,01,20.50
2016,05,05,17,02,20.40
2016,05,05,17,03,20.40
2016,05,05,17,04,20.40
2016,05,05,17,05,20.40
2016,05,05,17,06,20.40
2016,05,05,17,07,20.40
2016,05,05,17,08,20.50
2016,05,05,17,09,20.50
2016,05,05,17,10,20.60
2016,05,05,17,11,20.60
2016,05,05,17,12,20.70
2016,05,05,17,13,20.70
2016,05,05,17,14,20.80
2016,05,05,17,15,20.80
2016,05,05,17,16,20.80
2016,05,05,17,17,20.80
2016,05,05,17,18,20.90
2016,05,05,17,19,20.80
2016,05,05,17,20,20.80
2016,05,05,17,21,20.80
2016,05,05,17,22,20.80
2016,05,05,17,23,20.80
2016,05,05,17,24,20.80
2016,05,05,17,25,20.90
2016,05,05,17,26,20.90
2016,05,05,17,27,20.90
2016,05,05,17,28,21.00
2016,05,05,17,29,21.00
2016,05,05,17,30,21.00
2016,05,05,17,31,21.00
2016,05,05,17,32,21.00
2016,05,05,17,33,20.90
2016,05,05,17,34,20.90
2016,05,05,17,35,20.90
2016,05,05,17,36,21.00
2016,05,05,17,37,21.00
2016,05,05,17,38,21.10
2016,05,05,17,39,21.10
2016,05,05,17,40,21.10
2016,05,05,17,41,21.10